{"data":{"norad_id":38254,"epoch":"2026-09-20T03:09:28.554336Z","epoch_age_seconds":53800,"freshness":"FRESH","line1":"1 38254U 12019A   26263.13158049 -.00000136  00000+0  00000+0 0  9994","line2":"2 38254   6.8655  56.7256 0002651 139.8111 193.4096  1.00271287  7932","mean_motion":1.00271287,"eccentricity":0.0002651,"inclination_deg":6.8655,"raan_deg":56.7256,"arg_perigee_deg":139.8111,"mean_anomaly_deg":193.4096,"bstar":0,"rev_number":793,"period_min":1436.1040364427,"perigee_km":35775.556661793,"apogee_km":35797.912476699,"semimajor_km":42164.871569246,"source":"CELESTRAK","updated_at":"2026-09-20T09:00:35.174114Z"}}